Date String (YYYY-MM-DD hh:mm:ss) UTC,Instrument flags,Ambient pressure (hPa),Sample flow (lpm),Bypass flow (lpm),Sample temperature (°C),Ambient temperature (°C),ASC tube jacket temperature (°C),LED temperature (°C),Box temperature (°C),Sample RH (%),Span deviation,Mass concentration (μg/m³),Mass concentration (μg/m³),Mass concentration (μg/m³)
DateTimeUTC,F1_M11,P_M11,Q1_M11,Q2_M11,T1_M11,T2_M11,T3_M11,T4_M11,T5_M11,U1_M11,ZSPAN_M11,X0_M11,X2_M11,X1_M11
2022-05-05 03:00:00,,0826.1,5.02,0.00,26.1,25.2,00.0,34.9,27.9,23.2,0000.0,0009.19,0004.09,0003.49
2022-05-05 03:01:00,,0826.2,5.00,0.00,26.1,25.2,00.0,34.9,27.9,23.2,0000.0,0009.13,0004.07,0003.48
2022-05-05 03:02:00,,0826.1,5.00,0.00,26.1,25.2,00.0,34.9,27.9,23.1,0000.0,0009.30,0004.09,0003.49
2022-05-05 03:03:00,,0826.1,4.99,0.00,26.1,25.3,00.0,35.0,27.9,23.1,0000.0,0009.67,0004.09,0003.50
2022-05-05 03:04:00,,0826.1,5.00,0.00,26.1,25.3,00.0,35.0,27.9,23.1,0000.0,0009.62,0004.07,0003.49
2022-05-05 03:05:00,,0826.2,5.01,0.00,26.1,25.3,00.0,35.0,27.9,23.0,0000.0,0009.25,0004.06,0003.47
2022-05-05 03:06:00,,0826.2,4.99,0.00,26.1,25.3,00.0,35.0,27.9,23.1,0000.0,0008.64,0004.01,0003.46
2022-05-05 03:07:00,,0826.2,5.01,0.00,26.1,25.3,00.0,35.0,27.9,23.2,0000.0,0008.54,0003.96,0003.43
2022-05-05 03:08:00,,0826.3,4.99,0.00,26.1,25.3,00.0,35.0,27.9,23.2,0000.0,0008.20,0003.88,0003.40
2022-05-05 03:09:00,,0826.3,5.01,0.00,26.1,25.3,00.0,35.0,27.9,23.1,0000.0,0007.15,0003.81,0003.37
2022-05-05 03:10:00,,0826.3,4.99,0.00,26.1,25.3,00.0,35.0,27.9,23.1,0000.0,0007.61,0003.78,0003.35
2022-05-05 03:11:00,,0826.3,5.00,0.00,26.1,25.3,00.0,35.0,27.9,22.9,0000.0,0007.96,0003.73,0003.34
2022-05-05 03:12:00,,0826.3,4.99,0.00,26.1,25.3,00.0,35.0,27.9,22.9,0000.0,0007.93,0003.71,0003.33
2022-05-05 03:13:00,,0826.3,5.01,0.00,26.1,25.3,00.0,35.0,28.0,22.8,0000.0,0007.87,0003.71,0003.32
2022-05-05 03:14:00,,0826.4,4.99,0.00,26.1,25.3,00.0,35.0,27.9,22.9,0000.0,0007.50,0003.73,0003.31
2022-05-05 03:15:00,,0826.4,5.00,0.00,26.1,25.3,00.0,35.0,28.0,22.9,0000.0,0007.54,0003.74,0003.30
2022-05-05 03:16:00,,0826.4,4.99,0.00,26.1,25.3,00.0,35.0,27.9,23.1,0000.0,0007.47,0003.72,0003.30
2022-05-05 03:17:00,,0826.4,5.00,0.00,26.1,25.3,00.0,35.0,27.9,23.2,0000.0,0007.43,0003.71,0003.29
2022-05-05 03:18:00,,0826.4,5.00,0.00,26.1,25.3,00.0,35.0,27.9,23.2,0000.0,0007.39,0003.70,0003.27
2022-05-05 03:19:00,,0826.4,5.00,0.00,26.1,25.3,00.0,35.0,27.9,23.3,0000.0,0007.49,0003.72,0003.27
2022-05-05 03:20:00,,0826.4,5.01,0.00,26.1,25.3,00.0,35.0,28.0,23.4,0000.0,0007.51,0003.74,0003.27
2022-05-05 03:21:00,,0826.4,4.99,0.00,26.1,25.3,00.0,35.0,27.9,23.4,0000.0,0006.87,0003.72,0003.27
2022-05-05 03:22:00,,0826.4,5.01,0.00,26.1,25.3,00.0,35.0,27.9,23.3,0000.0,0005.88,0003.73,0003.26
2022-05-05 03:23:00,,0826.4,4.98,0.00,26.1,25.3,00.0,35.0,27.9,23.4,0000.0,0006.10,0003.75,0003.26
2022-05-05 03:24:00,,0826.4,5.00,0.00,26.1,25.3,00.0,35.0,27.9,23.5,0000.0,0006.30,0003.77,0003.26
2022-05-05 03:25:00,,0826.4,4.99,0.00,26.1,25.3,00.0,35.0,27.9,23.4,0000.0,0006.33,0003.76,0003.27
2022-05-05 03:26:00,,0826.4,4.99,0.00,26.1,25.2,00.0,35.0,27.9,23.4,0000.0,0006.27,0003.76,0003.27
2022-05-05 03:27:00,,0826.4,5.01,0.00,26.1,25.3,00.0,35.0,28.0,23.3,0000.0,0006.43,0003.79,0003.28
2022-05-05 03:28:00,,0826.5,5.00,0.00,26.1,25.3,00.0,35.0,28.0,23.4,0000.0,0006.47,0003.80,0003.29
2022-05-05 03:29:00,,0826.5,5.01,0.00,26.1,25.3,00.0,35.0,28.0,23.4,0000.0,0006.46,0003.81,0003.30
2022-05-05 03:30:00,,0826.5,5.00,0.00,26.1,25.3,00.0,35.0,28.0,23.4,0000.0,0006.22,0003.78,0003.31
2022-05-05 03:31:00,,0826.5,4.99,0.00,26.1,25.3,00.0,35.0,28.0,23.4,0000.0,0006.19,0003.77,0003.32
2022-05-05 03:32:00,,0826.5,5.00,0.00,26.1,25.3,00.0,35.0,28.0,23.4,0000.0,0006.36,0003.79,0003.32
2022-05-05 03:33:00,,0826.5,5.00,0.00,26.1,25.3,00.0,35.0,28.0,23.4,0000.0,0007.16,0003.79,0003.32
2022-05-05 03:34:00,,0826.5,5.00,0.00,26.1,25.3,00.0,35.0,28.0,23.4,0000.0,0007.36,0003.75,0003.32
2022-05-05 03:35:00,,0826.4,4.99,0.00,26.1,25.3,00.0,35.0,28.0,23.4,0000.0,0007.27,0003.73,0003.31
2022-05-05 03:36:00,,0826.5,5.01,0.00,26.1,25.3,00.0,35.0,28.0,23.4,0000.0,0007.05,0003.70,0003.32
2022-05-05 03:37:00,,0826.4,4.99,0.00,26.1,25.3,00.0,35.0,28.0,23.3,0000.0,0007.12,0003.70,0003.32
2022-05-05 03:38:00,,0826.5,5.01,0.00,26.1,25.3,00.0,35.0,28.0,23.3,0000.0,0006.98,0003.67,0003.32
2022-05-05 03:39:00,,0826.5,4.99,0.00,26.1,25.3,00.0,35.0,28.0,23.3,0000.0,0006.94,0003.66,0003.32
2022-05-05 03:40:00,,0826.5,5.01,0.00,26.1,25.3,00.0,35.0,28.0,23.3,0000.0,0006.96,0003.66,0003.32
2022-05-05 03:41:00,,0826.5,4.99,0.00,26.1,25.3,00.0,35.0,28.0,23.3,0000.0,0006.97,0003.65,0003.31
2022-05-05 03:42:00,,0826.5,5.01,0.00,26.1,25.3,00.0,35.0,28.0,23.3,0000.0,0007.62,0003.66,0003.32
2022-05-05 03:43:00,,0826.5,4.99,0.00,26.1,25.3,00.0,35.0,27.9,23.2,0000.0,0007.77,0003.66,0003.33
2022-05-05 03:44:00,,0826.5,5.01,0.00,26.1,25.3,00.0,35.0,27.9,23.1,0000.0,0007.37,0003.71,0003.34
2022-05-05 03:45:00,,0826.5,4.99,0.00,26.1,25.3,00.0,35.0,27.9,23.1,0000.0,0007.06,0003.72,0003.35
2022-05-05 03:46:00,,0826.5,5.00,0.00,26.1,25.3,00.0,35.0,27.9,23.1,0000.0,0007.11,0003.74,0003.36
2022-05-05 03:47:00,,0826.5,4.99,0.00,26.1,25.3,00.0,35.0,28.0,23.1,0000.0,0007.20,0003.75,0003.37
2022-05-05 03:48:00,,0826.5,5.00,0.00,26.1,25.3,00.0,35.0,28.0,23.2,0000.0,0007.22,0003.76,0003.39
2022-05-05 03:49:00,,0826.5,4.99,0.00,26.1,25.3,00.0,35.0,28.0,23.1,0000.0,0007.26,0003.78,0003.41
2022-05-05 03:50:00,,0826.5,5.01,0.00,26.1,25.3,00.0,35.0,28.0,23.1,0000.0,0007.29,0003.81,0003.43
2022-05-05 03:51:00,,0826.5,4.99,0.00,26.1,25.3,00.0,35.0,28.0,23.2,0000.0,0007.41,0003.88,0003.46
2022-05-05 03:52:00,,0826.5,5.01,0.00,26.1,25.3,00.0,35.0,28.0,23.2,0000.0,0007.43,0003.90,0003.49
2022-05-05 03:53:00,,0826.5,4.99,0.00,26.1,25.3,00.0,35.0,28.0,23.2,0000.0,0006.85,0003.93,0003.50
2022-05-05 03:54:00,,0826.5,5.02,0.00,26.1,25.3,00.0,35.0,28.0,23.2,0000.0,0006.62,0003.93,0003.50
2022-05-05 03:55:00,,0826.5,4.99,0.00,26.1,25.3,00.0,35.0,28.0,23.2,0000.0,0006.76,0003.91,0003.49
2022-05-05 03:56:00,,0826.5,5.01,0.00,26.2,25.3,00.0,35.0,28.0,23.2,0000.0,0006.78,0003.91,0003.49
2022-05-05 03:57:00,,0826.5,5.01,0.00,26.2,25.3,00.0,35.0,28.0,23.3,0000.0,0006.65,0003.88,0003.47
2022-05-05 03:58:00,,0826.6,5.00,0.00,26.2,25.3,00.0,35.1,28.0,23.4,0000.0,0006.58,0003.86,0003.46
2022-05-05 03:59:00,,0826.6,5.01,0.00,26.2,25.3,00.0,35.1,28.0,23.3,0000.0,0006.37,0003.81,0003.42
